Wind_Speed
14 13 11 12 12 17 27 21 22 22 18 19 20 21 16 21 21 25 21 22 27 26 21 19 20 15 14 11 10 15 22 18 14 15 18 19 20 21 19 16 15 11 11 9
19 18 16 16 14 16 24 29 25 26 23 21 21 23 25 23 16 23 24 19 17 24 20 19 22 21 19 15 15 13 16 19 20 20 18 20 24 28 25 23 22 19 15 14
19 15 17 17 22 21 26 27 26 24 24 16 12 24 24 24 27 34 30 24 34 31 20 16 23 22 22 23 20 15 20 23 22 22 25 23 26 31 29 27 25 25 25 25
20 20 18 13 25 25 21 28 28 31 25 25 33 32 27 33 24 25 29 33 26 19 15 26 25 28 27 28 25 26 26 27 24 26 28 28 30 35 36 33 32 28 29 29
28 27 22 22 30 22 26 29 38 32 35 35 35 37 34 33 33 36 31 26 26 29 30 32 37 41 30 31 34 34 32 34 31 33 35 36 34 35 36 39 34 33 28 33
32 27 37 31 36 34 33 33 44 44 41 42 44 46 44 46 41 33 28 26 29 33 36 40 41 54 56 42 36 32 36 34 39 41 42 48 45 43 37 40 41 41 39 43
44 43 42 39 37 46 50 56 59 59 57 54 52 54 53 57 56 51 46 45 44 45 51 30 33 40 44 50 44 38 38 45 48 52 52 55 55 48 43 41 46 51 51 50
45 48 51 54 57 57 57 53 60 64 66 67 67 59 62 60 59 56 49 42 42 40 43 33 38 41 51 47 42 43 49 50 50 50 53 56 55 47 48 54 54 54 54 57
47 49 53 59 62 64 68 72 74 75 75 73 73 71 61 63 59 59 54 51 53 52 50 39 35 40 47 55 56 58 52 52 52 51 52 46 50 47 52 55 63 65 63 65
43 44 50 54 57 62 62 68 70 74 74 76 79 79 75 71 67 64 66 64 66 61 56 67 62 63 73 65 52 56 52 46 52 52 56 67 53 56 66 71 67 64 69 76
36 37 43 47 52 51 53 55 57 60 65 68 73 76 77 80 79 76 68 68 71 70 73 73 76 77 73 65 53 60 57 66 70 72 67 60 62 69 80 81 78 76 79 77
37 38 43 49 55 57 57 59 61 60 63 70 72 74 75 75 75 74 68 59 65 66 69 72 76 78 74 76 77 80 89 86 82 69 66 67 77 81 81 80 77 78 77 78
41 43 45 48 54 58 60 64 67 66 63 65 71 75 79 78 78 76 75 74 76 82 81 80 73 80 79 78 80 82 85 77 74 74 82 87 81 72 71 72 73 75 79 82
38 44 48 51 54 56 62 64 63 67 67 67 67 69 76 78 80 81 80 80 81 79 73 70 65 63 66 74 82 86 79 83 83 82 80 80 85 78 75 73 79 76 78 80
41 43 47 54 57 56 59 64 67 66 67 68 69 68 65 67 73 79 82 80 78 78 71 70 69 70 69 69 70 72 77 78 80 81 80 78 72 78 80 82 79 84 88 93
46 46 46 50 51 57 59 61 65 66 61 60 59 55 57 59 58 62 61 61 64 70 69 64 63 65 65 65 65 61 56 63 68 67 68 71 74 74 76 81 86 92 93 79
48 50 49 50 50 55 57 60 56 54 52 53 52 47 46 48 50 49 48 49 48 53 54 53 53 55 50 58 62 62 56 60 63 65 67 66 68 74 82 84 79 78 80 81
45 50 53 55 53 56 56 53 48 45 46 44 42 40 39 38 41 45 46 45 45 46 46 48 48 48 48 50 54 54 56 61 58 57 64 75 82 85 82 81 81 81 78 75
48 54 59 59 57 55 52 50 45 41 40 39 37 34 34 36 37 42 41 43 43 46 41 42 44 49 47 48 45 48 50 54 57 67 73 74 76 75 74 74 72 71 71 69
51 57 64 59 59 55 46 45 41 39 34 33 31 21 26 32 33 34 34 24 25 31 32 32 34 41 49 51 54 56 62 68 76 78 73 73 70 69 67 67 69 68 63 59
59 62 66 60 62 56 46 43 38 28 24 21 23 28 31 28 26 31 28 26 18 32 36 39 41 44 50 59 62 69 74 76 75 71 63 63 63 62 64 63 57 51 47 44
61 62 65 61 64 56 46 35 28 14 4 7 24 29 28 27 27 26 28 27 28 29 34 33 37 44 55 56 59 59 63 58 56 57 58 61 62 60 55 48 44 41 38 35
68 67 66 65 64 53 41 34 26 12 10 6 20 37 33 31 27 28 33 37 37 39 41 40 44 45 49 56 59 56 50 50 51 52 54 55 53 49 41 36 32 29 27 26
73 75 69 69 70 50 35 34 24 19 21 18 28 31 26 28 27 26 27 32 35 38 37 39 44 48 54 51 48 47 46 47 46 46 46 46 43 34 31 27 19 17 14 11
74 78 75 72 71 47 33 35 25 28 22 24 24 22 24 26 28 27 28 33 35 38 41 42 42 46 47 43 42 42 43 46 47 41 41 41 35 29 27 24 22 18 14 9
79 78 75 79 67 42 33 27 26 32 31 30 23 25 22 21 23 23 25 30 32 31 34 34 35 32 33 35 38 41 42 43 42 40 38 38 34 29 26 22 21 15 10 10
Wind_Direction
228 241 250 218 228 249 252 271 264 257 257 261 266 271 277 279 288 297 301 317 313 296 265 285 284 284 274 274 295 321 323 326 331 325 318 319 319 309 299 297 297 289 263 264
246 253 243 235 260 272 237 255 261 259 259 278 283 265 270 277 285 269 291 299 308 311 282 292 285 274 269 259 270 291 302 299 305 310 307 306 311 312 303 297 294 296 275 262
237 228 242 263 269 252 259 261 261 247 247 246 254 267 277 274 275 268 285 281 292 288 269 299 286 274 275 267 265 276 286 281 282 292 297 295 302 312 299 290 288 281 282 280
224 227 238 249 256 242 242 265 263 247 243 239 241 263 272 273 264 261 278 288 279 257 272 288 284 273 275 282 279 275 276 271 276 282 294 288 303 307 293 286 289 285 281 277
234 236 241 245 250 254 268 257 253 246 251 247 250 259 265 274 266 260 271 284 283 250 278 286 277 288 269 275 283 265 267 267 271 281 295 297 292 294 289 288 282 279 272 275
237 246 243 254 238 238 235 256 252 254 255 257 261 264 262 266 261 253 259 274 275 256 272 281 277 288 281 271 275 267 275 259 275 282 286 294 288 297 277 274 274 275 274 277
243 243 245 248 250 238 243 245 250 256 258 261 261 264 265 262 259 263 263 267 264 265 283 264 270 276 264 269 261 265 261 268 281 286 290 293 292 288 279 268 272 276 272 268
256 252 253 252 246 246 248 245 252 256 256 257 264 269 268 264 263 271 271 251 252 259 247 250 261 246 257 262 262 266 274 278 280 284 293 294 294 277 280 278 269 269 264 261
255 256 257 257 259 257 259 260 261 262 264 262 262 265 266 259 258 263 260 257 252 258 255 249 253 255 257 264 276 271 273 272 275 282 281 282 280 269 277 278 270 265 262 265
260 262 266 268 266 266 266 267 267 268 267 268 267 270 268 259 260 260 257 254 254 254 254 251 256 255 260 268 273 273 275 279 274 277 277 283 272 272 271 281 277 269 267 264
266 268 272 272 272 272 272 272 274 274 274 271 271 271 267 265 263 264 264 257 250 248 253 252 258 264 266 264 267 271 276 278 281 283 283 277 270 271 276 276 278 274 278 269
274 276 277 281 281 279 276 274 273 275 274 269 269 267 267 267 264 264 257 249 244 244 249 256 261 263 263 258 261 266 274 277 279 275 272 270 275 278 276 277 277 277 274 272
285 283 282 282 281 280 279 279 278 276 275 271 265 265 265 264 261 261 259 258 257 254 259 262 266 258 259 261 264 267 268 273 271 274 274 274 274 273 274 276 274 273 273 273
296 294 290 285 283 282 280 280 280 279 278 276 271 260 258 258 258 259 261 262 262 265 271 268 262 262 260 257 259 262 264 264 267 268 272 273 274 273 274 282 281 278 279 282
298 298 299 295 291 288 284 281 283 280 277 275 272 269 262 259 258 258 258 260 262 264 264 261 262 263 262 260 260 263 263 264 266 269 271 272 273 275 278 281 284 283 281 285
297 298 296 299 296 293 291 282 282 283 282 277 272 270 268 266 265 263 265 265 262 261 262 265 260 258 257 257 257 255 272 272 271 272 277 280 282 283 287 289 286 281 282 284
306 303 300 306 305 305 296 293 285 282 277 274 275 275 267 260 260 262 261 260 260 257 257 259 256 256 259 254 254 258 273 279 276 275 280 284 289 292 290 292 292 285 285 290
311 315 315 313 312 314 303 298 291 283 277 273 273 273 271 262 257 257 258 260 259 258 258 259 259 264 266 271 275 275 281 287 285 286 289 291 288 291 290 291 292 290 288 287
318 321 325 324 323 322 310 299 288 280 273 270 271 274 272 265 260 255 256 259 262 260 264 264 262 257 267 274 276 281 286 287 289 289 289 293 292 294 295 295 292 290 289 288
322 323 326 324 324 324 309 298 297 291 284 279 273 270 260 265 261 256 250 253 250 251 263 266 278 269 275 270 270 282 286 284 288 290 296 299 299 300 297 294 292 291 287 283
323 325 329 325 326 323 312 303 297 289 289 281 270 261 259 267 264 257 245 243 264 249 260 269 275 277 275 271 274 279 284 288 293 298 300 301 301 298 298 297 292 291 288 284
322 328 327 324 326 321 311 301 294 299 309 323 316 292 273 265 265 256 262 258 262 259 272 279 267 270 273 274 283 299 300 300 302 303 304 303 304 303 301 296 292 291 290 287
323 329 327 323 323 318 297 291 292 252 151 164 251 275 275 274 267 252 257 263 280 280 274 271 271 272 276 286 297 299 300 302 303 302 301 303 306 305 305 306 301 298 293 289
322 327 325 321 321 312 286 272 279 242 198 205 233 264 271 276 278 274 270 271 275 277 279 277 274 281 292 297 300 301 301 301 301 302 305 310 312 312 311 309 312 314 319 320
322 325 321 319 319 304 265 261 257 244 218 227 240 249 269 271 271 268 264 271 272 279 281 285 290 289 291 296 298 298 297 298 301 304 310 318 315 312 307 302 304 308 312 318
322 322 317 317 314 289 258 250 251 232 249 246 253 252 261 264 266 270 277 281 281 281 286 285 288 291 296 297 297 297 298 298 299 303 307 316 315 311 310 306 307 308 306 309
Height
11031 11031 11032 11031 11032 11031 11031 11032 11031 11032 11032 11030 11030 11030 11032 11031 11031 11031 11031 11030 11029 11027 11027 11028 11027 11027 11026 11024 11024 11023 11023 11021 11022 11024 11023 11023 11023 11021 11019 11018 11017 11015 11014 11013
11026 11029 11028 11028 11026 11026 11027 11027 11027 11028 11025 11025 11026 11026 11027 11027 11024 11027 11026 11024 11022 11023 11023 11021 11022 11021 11021 11020 11020 11019 11019 11019 11017 11016 11017 11018 11017 11015 11014 11013 11012 11011 11011 11009
11021 11023 11023 11024 11021 11022 11020 11021 11023 11023 11022 11022 11020 11017 11020 11021 11020 11018 11019 11016 11015 11018 11020 11018 11016 11016 11015 11014 11012 11013 11014 11013 11011 11011 11011 11011 11011 11010 11009 11007 11005 11004 11003 11000
11016 11018 11021 11021 11017 11014 11015 11016 11019 11018 11013 11015 11013 11013 11015 11013 11014 11013 11010 11011 11010 11012 11011 11009 11010 11010 11007 11007 11006 11004 11006 11005 11003 11002 11004 11005 11004 11004 11002 11001 11000 10997 10995 10993
11014 11015 11018 11014 11017 11013 11012 11013 11010 11010 11008 11009 11006 11008 11011 11005 11006 11010 11010 11006 11007 11004 11001 10998 10999 11002 11001 10998 10997 10996 10994 10995 10994 10994 10995 10997 10997 10997 10994 10992 10990 10989 10988 10985
11008 11009 11007 11007 11009 11006 11006 11005 11001 11001 11000 10998 11000 11000 11004 10997 10996 11006 11006 11001 10997 10995 10993 10992 10991 10992 10993 10995 10988 10984 10984 10983 10981 10984 10984 10985 10986 10986 10985 10983 10981 10980 10978 10975
11003 11004 11001 10999 10998 10995 10994 10992 10988 10987 10989 10991 10991 10988 10990 10987 10984 10993 10998 10994 10991 10986 10983 10979 10981 10979 10973 10983 10983 10979 10972 10973 10975 10975 10975 10975 10974 10973 10972 10971 10969 10965 10965 10963
10993 10993 10990 10987 10984 10983 10981 10979 10975 10975 10975 10978 10980 10978 10976 10971 10970 10978 10983 10989 10983 10986 10984 10973 10973 10973 10968 10974 10975 10974 10966 10959 10963 10969 10967 10964 10960 10960 10959 10959 10957 10953 10950 10948
10983 10980 10975 10970 10969 10970 10968 10965 10963 10963 10959 10962 10961 10964 10962 10960 10958 10967 10968 10971 10973 10974 10973 10965 10960 10962 10961 10961 10958 10960 10960 10954 10952 10961 10963 10959 10955 10950 10944 10940 10939 10938 10936 10934
10970 10968 10963 10961 10958 10955 10958 10949 10949 10947 10947 10945 10943 10943 10948 10948 10946 10952 10949 10955 10958 10959 10955 10952 10950 10950 10949 10944 10941 10941 10944 10941 10940 10943 10943 10941 10938 10931 10927 10923 10924 10920 10920 10918
10960 10958 10952 10949 10943 10944 10940 10934 10932 10928 10924 10924 10922 10924 10927 10927 10929 10931 10930 10930 10939 10943 10941 10939 10934 10931 10931 10931 10931 10932 10931 10927 10927 10925 10923 10919 10915 10910 10907 10905 10905 10902 10901 10897
10950 10950 10945 10938 10929 10926 10923 10919 10914 10912 10907 10901 10902 10903 10903 10904 10907 10907 10909 10909 10910 10914 10916 10914 10911 10914 10915 10920 10922 10922 10915 10911 10908 10905 10901 10899 10895 10893 10890 10887 10884 10881 10879 10877
10940 10937 10934 10928 10916 10910 10907 10899 10893 10892 10890 10884 10884 10885 10882 10883 10886 10886 10886 10887 10891 10897 10898 10900 10901 10899 10900 10905 10905 10899 10896 10891 10885 10881 10880 10881 10877 10875 10874 10869 10865 10862 10860 10857
10928 10922 10918 10913 10905 10897 10890 10882 10874 10870 10867 10863 10863 10864 10862 10864 10864 10865 10868 10869 10873 10876 10879 10882 10882 10883 10882 10881 10880 10878 10873 10868 10865 10866 10864 10863 10861 10859 10853 10849 10846 10843 10840 10835
10919 10913 10905 10895 10888 10883 10875 10867 10851 10847 10845 10840 10837 10841 10846 10844 10842 10846 10849 10856 10859 10859 10860 10859 10861 10859 10860 10860 10859 10857 10854 10850 10848 10848 10847 10846 10841 10838 10834 10830 10824 10819 10813 10807
10907 10901 10894 10884 10876 10863 10854 10844 10837 10829 10826 10820 10820 10825 10824 10824 10834 10831 10834 10835 10837 10838 10840 10840 10841 10837 10838 10837 10838 10836 10836 10834 10832 10830 10829 10825 10820 10816 10811 10806 10799 10791 10784 10777
10891 10883 10878 10870 10861 10848 10832 10826 10819 10813 10807 10802 10802 10808 10809 10811 10811 10815 10816 10816 10817 10818 10818 10819 10817 10818 10818 10818 10818 10821 10818 10816 10813 10811 10809 10805 10798 10794 10791 10781 10771 10764 10758 10750
10879 10869 10861 10852 10844 10829 10815 10808 10802 10797 10792 10791 10792 10791 10793 10796 10798 10799 10800 10799 10800 10801 10803 10802 10804 10806 10805 10804 10802 10803 10802 10799 10796 10793 10790 10787 10782 10771 10763 10754 10747 10739 10731 10725
10866 10856 10847 10836 10826 10814 10799 10790 10786 10783 10782 10782 10780 10781 10780 10780 10784 10784 10787 10789 10792 10791 10791 10790 10792 10793 10793 10794 10793 10792 10788 10785 10781 10778 10772 10764 10757 10748 10739 10730 10721 10714 10707 10701
10853 10845 10835 10823 10814 10803 10789 10779 10777 10775 10775 10775 10772 10773 10771 10770 10772 10774 10777 10778 10780 10781 10781 10781 10780 10781 10782 10781 10780 10778 10776 10772 10765 10759 10750 10742 10734 10725 10718 10710 10701 10693 10687 10683
10838 10829 10819 10809 10800 10790 10783 10772 10768 10769 10768 10767 10766 10766 10763 10763 10764 10763 10768 10772 10773 10774 10775 10775 10774 10775 10773 10772 10770 10766 10759 10752 10743 10735 10728 10722 10716 10709 10701 10690 10682 10676 10671 10669
10827 10822 10809 10799 10788 10778 10772 10766 10764 10765 10767 10768 10768 10764 10761 10762 10761 10760 10759 10759 10762 10764 10764 10763 10762 10761 10760 10758 10753 10746 10741 10734 10725 10718 10711 10705 10700 10691 10682 10675 10670 10665 10661 10659
10808 10806 10797 10785 10777 10768 10761 10758 10757 10758 10759 10762 10766 10756 10757 10757 10758 10757 10754 10752 10753 10753 10753 10754 10752 10749 10746 10743 10740 10734 10727 10721 10716 10711 10705 10696 10687 10678 10672 10665 10659 10655 10653 10651
10793 10787 10780 10771 10759 10755 10751 10748 10750 10752 10752 10752 10753 10749 10751 10752 10752 10753 10749 10747 10746 10744 10743 10742 10740 10737 10734 10730 10725 10721 10717 10712 10708 10702 10695 10687 10678 10670 10664 10659 10655 10652 10649 10648
10781 10773 10761 10753 10744 10738 10736 10735 10742 10743 10745 10743 10745 10746 10748 10745 10745 10747 10746 10742 10741 10736 10732 10731 10730 10728 10725 10720 10716 10712 10710 10704 10698 10693 10687 10679 10670 10665 10660 10656 10653 10651 10649 10648
10768 10758 10746 10734 10728 10720 10719 10724 10729 10732 10732 10735 10736 10738 10739 10737 10737 10738 10737 10734 10731 10729 10725 10725 10723 10720 10716 10713 10709 10703 10699 10694 10688 10683 10677 10672 10665 10661 10657 10654 10651 10649 10648 10646